Tracking 30990 objects as of 8-Jul-2025
HD Live streaming from Space Station
objects crossing your sky now

CHINASAT 20

Track CHINASAT 20 now!
CHINASAT 20 is classified as:


NORAD ID: 28082
Int'l Code: 2003-052A
Perigee: 36,101.7 km
Apogee: 36,143.5 km
Inclination: 9.7 °
Period: 1,452.9 minutes
Semi major axis: 42493 km
RCS: 12.5893 m2 (large)
Launch date: November 14, 2003
Source: People's Republic of China (PRC)
Launch site: Xichang Space Center, China (XSC)

Dedicated military communications satellite.
Your satellite tracking list
Your tracking list is empty




NASA's NSSDC Master Catalog

Two Line Element Set (TLE):
1 28082U 03052A   25188.78595316  .00000055  00000-0  00000-0 0  9998
2 28082   9.7087  53.0753 0004918 106.3742  91.2899  0.99110008 78978
Source of the keplerian elements: AFSPC